Regional Weather Roundup
Issued by NWS

Home | Current Version | Previous Version | Graphics & Text | Print | Product List | Glossary Off
Versions: 1 2 3 4 5 6 7 8 9 10 11 12 13 14 15 16 17 18 19 20 21 22 23 24 25 26 27 28 29 30 31 32 33 34 35 36 37 38 39 40 41 42 43 44 45 46 47 48 49 50

000
ASUS43 KMKX 050100
RWRWI

WISCONSIN REGIONAL WEATHER ROUNDUP
NATIONAL WEATHER SERVICE MILWAUKEE/SULLIVAN WI
800 PM CDT TUE AUG 04 2015

NOTE: "FAIR" INDICATES FEW OR NO CLOUDS BELOW 12,000 FEET WITH NO
SIGNIFICANT WEATHER AND/OR OBSTRUCTIONS TO VISIBILITY.

WIZ001-002-006>008-014>016-023>028-050200-
NORTHWEST WISCONSIN

CITY           SKY/WX    TMP DP  RH WIND       PRES   REMARKS
SUPERIOR ARPT  CLEAR     59  53  79 NE5       30.00R
ASHLAND        CLEAR     63  54  72 E6        30.02R
HAYWARD        MOCLDY    68  55  63 NE6       30.00R
SIREN          PTCLDY    73  53  50 N3        29.98S
CUMBERLAND     CLEAR     70  55  60 N5        29.99R
RICE LAKE      PTCLDY    72  55  55 CALM      30.00R
CHETEK         MOCLDY    73  56  56 CALM      29.99R
LADYSMITH      CLEAR     70  58  66 N3        30.00S
EAU CLAIRE     NOT AVBL
MENOMONIE      PTCLDY    76  51  41 SW6       29.98R
NEW RICHMOND   CLEAR     72  55  55 N3        29.99R
OSCEOLA        CLEAR     75  55  51 N3        30.00S
$$

WIZ003>005-009-010-017-018-050200-
NORTH CENTRAL WISCONSIN

CITY           SKY/WX    TMP DP  RH WIND       PRES   REMARKS
MANITOWISH WTR PTCLDY    63  50  63 NW5       30.02R
ARBOR VITAE    CLOUDY    64  52  65 N6        30.02R
WOODRUFF       CLOUDY    64  52  65 N6        30.02R
RHINELANDER    MOCLDY    65  52  62 CALM      30.02R
EAGLE RIVER    MOCLDY    64  47  54 NW6       30.01R
LAND O LAKES   PTCLDY    64  50  60 N6        30.02R
PHILLIPS       PTCLDY    65  55  68 NE8       30.00R
TOMAHAWK       MOCLDY    63  54  74 CALM      30.01R
MEDFORD        CLEAR     68  55  64 W3        30.00R
MERRILL        NOT AVBL
$$

WIZ029-030-035-036-043>047-050200-
CENTRAL WISCONSIN

CITY           SKY/WX    TMP DP  RH WIND       PRES   REMARKS
WAUSAU         PTCLDY    71  51  49 N6        29.97R
MOSINEE        CLEAR     70  54  56 NW6       29.99S
MARSHFIELD     CLEAR     70  53  54 NW5       29.99R
STEVENS POINT  CLEAR     71  52  51 NW5       29.98R
WAUPACA        CLEAR     73  52  48 NW3       29.97R
WAUTOMA        NOT AVBL
WISC RAPIDS    CLEAR     72  51  47 NW5       29.99R
CAMP DOUGLAS   NOT AVBL
$$

WIZ011>013-019>022-031-037>040-048>050-050200-
NORTHEAST WISCONSIN

CITY           SKY/WX    TMP DP  RH WIND       PRES   REMARKS
ANTIGO         CLOUDY    65  55  70 N3        30.00R
SHAWANO        PTCLDY    71  54  55 CALM      29.96S
OCONTO         CLOUDY    66  60  80 E6        29.97R
STURGEON BAY   MOCLDY    64  55  72 E6        30.00R
GREEN BAY      PTCLDY    69  56  62 NW7       29.95R
MANITOWOC      NOT AVBL
APPLETON       PTCLDY    72  52  49 NW6       29.96S
CLINTONVILLE   PTCLDY    72  52  49 N3        29.96R
OSHKOSH        CLEAR     72  53  51 NW5       29.96R
$$

WIZ032>034-041-042-053>061-050200-
SOUTHWEST WISCONSIN

CITY           SKY/WX    TMP DP  RH WIND       PRES   REMARKS
LA CROSSE      CLEAR     76  55  48 W6        29.98R
SPARTA         CLEAR     75  50  41 W3        29.99R
VIROQUA        CLEAR     71  57  62 CALM      30.01R
BOSCOBEL       PTCLDY    73  59  61 CALM      29.99R
PRAIRIE DU CHI PTCLDY    75  53  47 CALM      29.99R
PLATTEVILLE    PTCLDY    72  58  62 CALM      30.01R
$$

WIZ056-057-062-063-064-067-068-050200-
SOUTH CENTRAL WISCONSIN

CITY           SKY/WX    TMP DP  RH WIND       PRES   REMARKS
REEDSBURG      CLEAR     75  53  45 NW5       29.97R
BARABOO/DELLS  PTCLDY    75  48  38 W6        29.98R
LONE ROCK      NOT AVBL
MINERAL POINT  PTCLDY    72  54  53 CALM      30.01R
MADISON        MOCLDY    72  56  57 CALM      29.98R
MIDDLETON      CLEAR     74  54  49 CALM      29.99R
WATERTOWN      CLEAR     73  54  52 NW3       29.96R
MONROE         PTCLDY    72  55  56 W5        29.99R
JANESVILLE     PTCLDY    73  54  49 NW3       29.97R
$$

WIZ051-052-058>065-066-070>072-050200-
SOUTHEAST WISCONSIN

CITY           SKY/WX    TMP DP  RH WIND       PRES   REMARKS
MILWAUKEE      MOCLDY    71  56  58 S7        29.97R
WAUKESHA       PTCLDY    72  52  49 NW3       29.98R
MILWAUKEE/TIMM CLEAR     73  46  38 NW8       29.96R
RACINE         MOCLDY    71  56  58 S7        29.99R
BURLINGTON     PTCLDY    71  53  54 W3        29.97R
KENOSHA        PTCLDY    71  56  58 E7        29.98R
FOND DU LAC    CLEAR     72  54  53 NW5       29.96R
SHEBOYGAN      CLEAR     70  54  56 NW3       29.95R
WEST BEND      CLEAR     72  52  49 NW5       29.96R
JUNEAU         PTCLDY    71  54  55 CALM      29.98R
$$

LSZ147-162-050200-
LAKE SUPERIOR

STATION/POSITION TIME  TEMP    WIND        PRES    WAVE
                       AIR SEA DIR/SP/G            HT/PER
                 (UTC) (F)     (DEG/KT/KT) (MB)    (FT/S)
W MID LAKE BUOY  2350   59 58  170/  4/  4 1016.2R   0
DEVILS ISLAND    0000   63      80/  2/  3 1016.3R
PORT WING        0000   71      60/  8/ 11 1015.9S
SAXON HARBOR     0000   67      50/  4/  5 1015.9
$$

LMZ867-665-643>646-050200-
LAKE MICHIGAN

STATION/POSITION TIME  TEMP    WIND        PRES    WAVE
                       AIR SEA DIR/SP/G            HT/PER
                 (UTC) (F)     (DEG/KT/KT) (MB)    (FT/S)
CHAMBERS ISLAND  0000   67      30/  6/  7 1014.6R
N MID LAKE BUOY  2350   64 69  300/  4/  6 1014.6R   0
NORTHPORT PIER   0000   67      80/  3/  3 1014.6R
SISTER BAY       0018   69     130/  4/  6   N/A
ALGOMA LAKESHORE 0012           70/  6/  6   N/A
KEWAUNEE LAKESHO 0000   65     190/  8/  9 1013.4R
SHEBOYGAN LAKESH 0000   75     320/ 10/ 12 1013.8S
PORT WASHINGTON  0000   78     310/  5/  9 1014.2S
ATWATER BUOY     0000   68 64  150/  8/  8 1015.4R
MILWAUKEE LAKESH 0000   69     140/ 12/ 13   N/A
KENOSHA   LAKESH 0000   71     170/  5/  6 1013.9S
$$

TC  - TEMPERATURE IN CELSIUS
VSB - VISIBILITY IN STATUTE MILES
WCI - WIND CHILL INDEX
HX  - HEAT INDEX




USA.gov is the U.S. government's official web portal to all federal, state and local government web resources and services.